Stampede Pass, WA
on Tuesday, February 12, 2013

Tuesday
Previous Day Next Day
Daily Summary
 ActualAverage (KEAT)Record (KEAT)
Temperature
Mean Temperature °F 31°F  
Max Temperature 34°F 38°F 59°F (2011)
Min Temperature 30°F 23°F 16°F (1989)
Degree Days
Heating Degree Days 33 34  
Month to date heating degree days 418  
Since 1 July heating degree days 4675  
Cooling Degree Days 0 0  
Month to date cooling degree days 0  
Year to date cooling degree days 0  
Moisture
Dew Point 30°F   
Average Humidity 88    
Maximum Humidity 96    
Minimum Humidity 81    
Precipitation
Precipitation 0.03 in 0.06 in 0.33 in (1998)
Month to date precipitation 0.64  
Year to date precipitation 2.51  
Snow
Snow 0.00 in 0.20 in in ()
Month to date snowfall 3.2  
Since 1 July snowfall 43.6  
Snow Depth in   
Wind
Wind Speed 10 mph   
Max Wind Speed 17 mph   
Max Gust Speed 38 mph   
Visibility 2 miles   
Events Fog , Rain , Snow   

Key: T is trace of precipitation, MM is missing value
Source: NWS Daily Summary
Time(PST)TemperatureDew PointHumidity Pressure Visibility Wind DirectionWind SpeedGust SpeedPrecipitationEvents Conditions
12:01 AM 33.8°F 28.4°F 81% 30.22 in 1.8 miles West 9.2 mph 20.7 mph N/A   Overcast
12:35 AM 33.8°F 28.4°F 81% 30.22 in 3.0 miles West 10.4 mph 19.6 mph N/A   Overcast
12:47 AM 33.8°F 28.4°F 81% 30.22 in 1.2 miles West 8.1 mph 20.7 mph N/A   Overcast
1:28 AM 33.8°F 28.4°F 81% 30.21 in 0.5 miles West 11.5 mph 19.6 mph N/A Fog Fog
1:41 AM 32.0°F 28.4°F 87% 30.22 in 0.2 miles West 10.4 mph 17.3 mph N/A Fog Fog
3:09 AM 30.2°F 28.4°F 93% 30.22 in 0.5 miles West 10.4 mph 20.7 mph N/A Fog Light Freezing Fog
4:44 AM 32.0°F 28.4°F 87% 30.23 in 1.0 miles West 9.2 mph - N/A   Overcast
5:56 AM 32.0°F 28.9°F 88% 30.31 in 0.8 miles West 8.1 mph - N/A   Overcast
8:56 AM 32.0°F 30.0°F 92% 30.35 in 0.2 miles West 8.1 mph 17.3 mph 0.00 in Fog Fog
9:27 AM 32.0°F 30.2°F 93% 30.27 in 1.0 miles Variable 6.9 mph - N/A   Overcast
11:23 AM 33.8°F 30.2°F 87% 30.27 in 0.2 miles West 9.2 mph 18.4 mph 0.01 in Fog Fog
11:51 AM 33.8°F 30.2°F 87% 30.27 in 0.5 miles West 11.5 mph 20.7 mph 0.01 in Fog Fog
4:08 PM 33.8°F 32.0°F 93% 30.24 in 2.0 miles West 10.4 mph 21.9 mph 0.00 in   Overcast
4:15 PM 33.8°F 30.2°F 87% 30.24 in 10.0 miles West 13.8 mph 21.9 mph 0.00 in   Overcast
4:22 PM 33.8°F 30.2°F 87% 30.24 in 10.0 miles West 10.4 mph 25.3 mph 0.00 in   Overcast
4:56 PM 33.1°F 30.9°F 92% 30.29 in 3.0 miles West 10.4 mph 27.6 mph 0.00 in   Overcast
4:59 PM 33.8°F 30.2°F 87% 30.22 in 1.8 miles West 10.4 mph 27.6 mph 0.00 in   Overcast
7:05 PM 33.8°F 32.0°F 93% 30.22 in 1.8 miles West 13.8 mph 27.6 mph 0.02 in Snow Light Snow
10:56 PM 34.0°F 33.1°F 96% 30.26 in 1.8 miles West 17.3 mph 34.5 mph 0.03 in Rain Light Rain
11:10 PM 33.8°F 32.0°F 93% 30.18 in 1.2 miles West 17.3 mph 38.0 mph 0.00 in   Overcast
Moon Phase
Feb. 12 Feb. 17 Feb. 25 Mar. 04 Mar. 11
Sunrise:07:14 AM (PST) Moon Rise:08:00 AM (PST)2/12
Sunset:05:25 PM (PST) Moon Set:08:48 PM (PST)2/12

Copyright © 2014 The Weather Underground, Inc.